Flag for Brazil Weather past 2 weeks in Manaus, Amazonas, Brazil

Now
86 °F

Scattered clouds.


Feels Like: 93 °F
Forecast: 73 / 90 °F
Wind: 6 mph from Southeast

Location: Manaus Aeroporto

Current Time: Sep 1, 2014 at 11:49:01 AM

Latest Report: Sep 1, 2014 at 11:00 AM


Visibility: N/A

Pressure: 29.98 "Hg

Humidity: 66%

Dew point: 73 °F

Location of ManausLocation

Historic Weather in Manaus — Graph

°F

Manaus temperature yesterday

Maximum temperature yesterday: 84 °F (at 2:00 PM)
Minimum temperature yesterday: 63 °F (at 6:00 PM)
Average temperature yesterday: 79 °F

Past Weeks' High & Low Weather Summary

 TemperatureHumidityPressure
High93 °F (Aug 20, 2:00 PM)100% (Aug 31, 6:00 PM)30.04 "Hg (Aug 31, 6:00 PM)
Low63 °F (Aug 31, 6:00 PM)34% (Aug 20, 1:00 PM)29.74 "Hg (Aug 24, 5:00 PM)
Average83 °F71%29.89 "Hg
* Reported Aug 17 10:00 AM — Sep 1 10:00 AM, Manaus, Weather by CustomWeather, © 2014

Note: Actual official high and low records may vary slightly from our data, if they occured in-between our weather recording intervals... More about our weather records

Advertising

Manaus weather history for previous 24 hours

 ConditionsComfort  
Time TempWeatherWind HumidityBarometerVisibility
10:00 AM
Sep 1
84 °FScattered clouds.3 mph70%30.01 "HgN/A
9:00 AM82 °FPartly sunny.2 mph70%30.01 "HgN/A
8:00 AM79 °FSunny.3 mph79%29.98 "Hg10 mi
7:00 AM75 °FSunny.5 mph89%29.95 "Hg10 mi
6:00 AM73 °FSunny.5 mph89%29.92 "Hg10 mi
5:00 AM75 °FClear.5 mph89%29.92 "Hg10 mi
4:00 AM75 °FClear.6 mph89%29.92 "Hg10 mi
3:00 AM75 °FClear.5 mph89%29.92 "Hg10 mi
2:00 AM75 °FClear.7 mph89%29.92 "Hg10 mi
1:00 AM75 °FClear.5 mph89%29.95 "Hg10 mi
12:00 AM75 °FClear.5 mph89%29.98 "Hg10 mi
11:00 PM
Aug 31
77 °FClear.3 mph89%29.98 "Hg10 mi
10:00 PM79 °FClear.5 mph84%29.95 "Hg10 mi
9:00 PM79 °FClear.6 mph79%29.92 "Hg10 mi
8:00 PM79 °FClear.5 mph74%29.92 "Hg10 mi
7:00 PM79 °FPassing clouds.5 mph79%29.89 "HgN/A
6:00 PM63 °FScattered clouds.5 mph100%29.89 "HgN/A
5:00 PM84 °FScattered clouds.3 mph66%29.89 "HgN/A
4:00 PM84 °FScattered clouds.7 mph66%29.89 "HgN/A
3:00 PM84 °FBroken clouds.3 mph66%29.92 "HgN/A
2:00 PM84 °FBroken clouds.6 mph66%29.95 "HgN/A
1:00 PM82 °FScattered clouds.6 mph70%30.01 "HgN/A
12:00 PM81 °FScattered clouds.7 mph74%30.04 "HgN/A
11:00 AM81 °FBroken clouds.6 mph74%30.04 "HgN/A
Weather by CustomWeather, © 2014

See weather overviewHow to use our weather pages